TimeMDT,TemperatureF,Dew PointF,Humidity,Sea Level PressureIn,VisibilityMPH,Wind Direction,Wind SpeedMPH,Gust SpeedMPH,PrecipitationIn,Events,Conditions,WindDirDegrees,DateUTC
12:53 AM,72.0,44.1,37,29.92,10.0,SW,3.5,-,N/A,,Clear,230,2013-08-23 06:53:00
1:53 AM,72.0,50.0,46,29.92,10.0,SW,6.9,-,N/A,,Clear,230,2013-08-23 07:53:00
2:53 AM,70.0,51.1,51,29.91,10.0,SW,5.8,-,N/A,,Clear,220,2013-08-23 08:53:00
3:53 AM,71.1,52.0,51,29.91,10.0,WSW,6.9,-,N/A,,Clear,240,2013-08-23 09:53:00
4:53 AM,68.0,50.0,52,29.91,10.0,SW,6.9,-,N/A,,Clear,220,2013-08-23 10:53:00
5:53 AM,64.9,51.1,61,29.93,10.0,SSW,5.8,-,N/A,,Clear,210,2013-08-23 11:53:00
6:53 AM,70.0,52.0,53,29.94,10.0,WSW,8.1,-,N/A,,Clear,250,2013-08-23 12:53:00
7:53 AM,73.9,54.0,50,29.96,10.0,West,4.6,-,N/A,,Clear,280,2013-08-23 13:53:00
8:53 AM,79.0,55.9,45,29.96,10.0,SW,5.8,-,N/A,,Clear,230,2013-08-23 14:53:00
9:53 AM,82.9,55.9,39,29.96,10.0,SSW,8.1,-,N/A,,Clear,200,2013-08-23 15:53:00
10:53 AM,87.1,55.9,35,29.95,10.0,South,9.2,-,N/A,,Clear,190,2013-08-23 16:53:00
11:53 AM,89.1,54.0,30,29.93,10.0,SSW,8.1,-,N/A,,Partly Cloudy,200,2013-08-23 17:53:00
12:53 PM,91.9,50.0,24,29.91,10.0,SE,8.1,19.6,N/A,,Clear,130,2013-08-23 18:53:00
1:53 PM,93.0,50.0,23,29.88,10.0,South,15.0,21.9,N/A,,Partly Cloudy,170,2013-08-23 19:53:00
2:53 PM,91.0,52.0,26,29.85,10.0,SSE,15.0,20.7,N/A,,Mostly Cloudy,160,2013-08-23 20:53:00
3:53 PM,93.9,52.0,24,29.83,10.0,SSE,16.1,-,N/A,,Partly Cloudy,160,2013-08-23 21:53:00
4:53 PM,93.0,51.1,24,29.82,10.0,South,19.6,25.3,N/A,,Scattered Clouds,170,2013-08-23 22:53:00
5:53 PM,91.9,51.1,25,29.82,10.0,South,16.1,23.0,N/A,,Clear,180,2013-08-23 23:53:00
6:53 PM,88.0,52.0,29,29.83,10.0,South,15.0,-,N/A,,Clear,190,2013-08-24 00:53:00
7:53 PM,84.0,50.0,31,29.86,10.0,SSW,15.0,-,N/A,,Clear,210,2013-08-24 01:53:00
8:53 PM,80.1,48.9,34,29.87,10.0,South,9.2,-,N/A,,Clear,180,2013-08-24 02:53:00
9:53 PM,78.1,52.0,40,29.89,10.0,SSW,11.5,-,N/A,,Clear,200,2013-08-24 03:53:00
10:53 PM,77.0,55.0,47,29.89,10.0,SSW,9.2,-,N/A,,Clear,210,2013-08-24 04:53:00
11:53 PM,75.9,55.0,48,29.89,10.0,SW,9.2,-,N/A,,Clear,220,2013-08-24 05:53:00